Stations météo

Publicité
Tours, France (7240): Température de l'air & dewpoint: 12.09.2018 17:00:00 - 18.09.2018 17:00:00 (CEST)Tours, France (7240): Température de l'air 5cm: 12.09.2018 17:00:00 - 18.09.2018 17:00:00 (CEST)Tours, France (7240): Température de l'air -20cm & Température de l'air -100cm: 12.09.2018 17:00:00 - 18.09.2018 17:00:00 (CEST)Tours, France (7240): Vitesse du vent & gusts: 12.09.2018 17:00:00 - 18.09.2018 17:00:00 (CEST)Tours, France (7240): Direction du vent: 12.09.2018 17:00:00 - 18.09.2018 17:00:00 (CEST)Tours, France (7240): reduced air pressure: 12.09.2018 17:00:00 - 18.09.2018 17:00:00 (CEST)Tours, France (7240): visibility: 12.09.2018 17:00:00 - 18.09.2018 17:00:00 (CEST)Tours, France (7240): Ensoleillement: 12.09.2018 17:00:00 - 18.09.2018 17:00:00 (CEST)Tours, France (7240): Quantités de précipitations: 12.09.2018 17:00:00 - 18.09.2018 17:00:00 (CEST)
Date & Time tt [°C] td [°C] tt 5cm [°C] tt -20cm [°C] tt -100cm [°C] ff [km/h] ff [knt] fx [km/h] fx [knt] dd ppp [hPa] vv [km] sd [min] rr [mm]
18.09.2018 17:00:00 25,5 16,6 26,9 20,0 19,4 12 6 24 13 W 1015,9 32 26 0,0
18.09.2018 16:00:00 24,6 17,1 27,4 20,0 19,4 12 6 23 12 SW 1016,3 46 10 0,0
18.09.2018 15:00:00 23,5 16,8 26,0 19,9 19,4 12 6 29 16 S 1016,6 47 2 0,0
18.09.2018 14:00:00 23,3 16,6 24,8 19,8 19,4 13 7 27 14 SSW 1016,8 60 4 0,0
18.09.2018 13:00:00 22,3 16,6 23,9 19,8 19,4 11 6 25 14 SW 1016,9 41 0 0,0
18.09.2018 12:00:00 22,0 16,0 24,2 19,7 19,4 13 7 23 13 S 1016,7 33 17 0,0
18.09.2018 11:00:00 20,5 16,5 21,1 19,8 19,4 9 5 22 12 SSW 1016,6 20 6 0,0
18.09.2018 10:00:00 18,8 16,4 18,7 19,8 19,4 13 7 19 10 S 1016,1 13 10 0,0
18.09.2018 09:00:00 17,7 16,0 17,4 19,8 19,4 8 4 17 9 S 1015,6 9 0 0,0
18.09.2018 08:00:00 17,4 15,9 17,2 19,9 19,4 10 6 17 9 S 1015,2 11 0 0,0
18.09.2018 07:00:00 17,4 15,7 17,0 19,9 19,4 8 4 20 11 SSW 1014,6 13 0 0,0
18.09.2018 06:00:00 17,3 15,3 16,1 20,0 19,4 11 6 29 16 WSW 1014,6 18 0 0,0
18.09.2018 05:00:00 18,0 14,7 16,5 20,0 19,4 10 5 25 14 WSW 1013,9 29 0 0,0
18.09.2018 04:00:00 19,6 14,6 17,7 20,1 19,4 10 5 17 9 SW 1013,5 41 0 0,0
18.09.2018 03:00:00 20,4 14,5 17,9 20,1 19,4 7 4 14 7 SW 1013,0 47 0 0,0
18.09.2018 02:00:00 20,9 14,5 15,6 20,2 19,4 9 5 13 7 SW 1012,9 50 0 0,0
18.09.2018 01:00:00 20,6 14,0 16,7 20,2 19,5 5 3 10 5 S 1012,9 48 0 0,0
18.09.2018 00:00:00 21,0 13,7 17,2 20,3 19,5 4 2 14 7 SSW 1012,7 53 0 0,0
17.09.2018 23:00:00 22,6 14,2 19,7 20,3 19,5 7 4 10 5 SSE 1012,6 59 0 0,0
17.09.2018 22:00:00 24,5 14,0 19,0 20,2 19,5 7 4 10 5 SSE 1012,4 60 0 0,0
17.09.2018 21:00:00 26,1 13,9 22,4 20,1 19,5 7 4 11 6 S 1012,2 60 0 0,0
17.09.2018 20:00:00 28,0 13,9 25,4 20,0 19,5 7 4 22 12 SSW 1012,0 60 42 0,0
17.09.2018 19:00:00 30,1 13,0 32,8 19,8 19,5 11 6 27 15 S 1012,2 60 60 0,0
17.09.2018 18:00:00 30,7 12,1 35,2 19,7 19,5 14 8 29 16 S 1012,6 40 60 0,0
17.09.2018 17:00:00 31,1 12,0 35,8 19,4 19,5 17 9 31 17 SSW 1013,4 20 60 0,0
17.09.2018 16:00:00 30,0 10,5 35,0 19,2 19,5 16 8 32 17 S 1014,2 18 60 0,0
17.09.2018 15:00:00 29,3 9,9 35,0 19,0 19,5 17 9 29 15 S 1015,1 18 60 0,0
17.09.2018 14:00:00 28,4 8,6 34,1 18,9 19,5 15 8 36 20 S 1015,9 18 60 0,0
17.09.2018 13:00:00 27,1 8,0 31,9 18,9 19,5 11 6 29 16 SSE 1016,8 59 60 0,0
17.09.2018 12:00:00 24,4 9,5 28,3 18,8 19,5 9 5 16 9 SE 1017,9 60 60 0,0
17.09.2018 11:00:00 21,4 9,0 24,3 18,9 19,5 8 4 14 7 SE 1018,5 60 60 0,0
17.09.2018 10:00:00 18,7 8,9 17,5 19,0 19,5 6 3 10 6 ESE 1018,9 60 60 0,0
17.09.2018 09:00:00 14,2 7,9 11,1 19,1 19,5 7 4 12 7 E 1019,0 59 60 0,0
17.09.2018 08:00:00 11,7 6,8 8,2 19,2 19,5 4 2 13 7 E 1019,1 60 1 0,0
17.09.2018 07:00:00 12,0 6,9 7,5 19,3 19,5 11 6 13 7 E 1019,0 60 0 0,0
17.09.2018 06:00:00 11,4 8,6 7,5 19,4 19,5 5 3 8 4 N 1019,6 60 0 0,0
17.09.2018 05:00:00 12,9 8,8 8,7 19,5 19,5 0 0 3 2 N 1019,8 60 0 0,0
17.09.2018 04:00:00 13,9 8,1 9,7 19,6 19,5 3 2 6 3 ENE 1019,8 60 0 0,0
17.09.2018 03:00:00 14,0 9,0 10,3 19,6 19,5 4 2 6 3 ENE 1020,0 19 0 0,0
17.09.2018 02:00:00 14,7 9,3 12,3 19,7 19,6 0 0 4 2 N 1020,4 60 0 0,0
17.09.2018 01:00:00 15,1 9,9 12,8 19,8 19,5 3 2 8 4 NNW 1020,6 59 0 0,0
17.09.2018 00:00:00 15,7 9,8 11,6 19,8 19,6 6 3 10 6 NNW 1020,6 58 0 0,0
16.09.2018 23:00:00 16,4 9,8 13,4 19,9 19,5 11 6 14 8 E 1020,5 60 0 0,0
16.09.2018 22:00:00 17,8 9,7 13,2 19,9 19,6 3 2 6 3 N 1020,8 60 0 0,0
16.09.2018 21:00:00 19,1 8,7 14,5 19,8 19,6 4 2 7 4 W 1020,4 56 0 0,0
16.09.2018 20:00:00 22,8 7,3 19,5 19,7 19,6 0 0 7 4 N 1019,6 59 9 0,0
16.09.2018 19:00:00 24,7 6,4 24,8 19,6 19,5 2 1 9 5 WNW 1019,3 60 0 0,0
16.09.2018 18:00:00 25,2 5,9 26,2 19,4 19,6 7 4 14 8 W 1019,2 58 0 0,0
16.09.2018 17:00:00 25,4 6,6 28,3 19,2 19,6 8 5 16 9 WNW 1019,3 58 0 0,0
16.09.2018 16:00:00 25,8 5,9 29,6 19,0 19,6 3 2 16 9 SW 1019,4 54 31 0,0
16.09.2018 15:00:00 25,7 7,3 30,9 18,8 19,6 7 4 17 9 SSE 1019,7 20 60 0,0
16.09.2018 14:00:00 25,3 7,9 30,9 18,7 19,6 7 4 19 10 SSE 1020,1 17 60 0,0
16.09.2018 13:00:00 23,4 8,3 27,5 18,7 19,6 9 5 18 10 ESE 1020,5 18 54 0,0
16.09.2018 12:00:00 21,7 9,2 23,8 18,7 19,6 8 4 14 7 E 1020,9 60 53 0,0
16.09.2018 11:00:00 18,9 8,5 21,5 18,7 19,6 8 5 13 7 E 1021,1 60 60 0,0
16.09.2018 10:00:00 16,5 8,2 17,3 18,8 19,6 9 5 15 8 E 1021,3 60 60 0,0
16.09.2018 09:00:00 13,5 7,9 11,3 18,9 19,6 8 5 17 9 ENE 1021,4 60 60 0,0
16.09.2018 08:00:00 11,0 6,9 9,6 19,0 19,6 13 7 19 11 ENE 1021,3 52 2 0,0
16.09.2018 07:00:00 11,1 6,8 9,0 19,1 19,6 13 7 17 9 ENE 1021,0 60 0 0,0
16.09.2018 06:00:00 11,4 6,7 8,6 19,2 19,6 11 6 17 9 ENE 1021,2 59 0 0,0
16.09.2018 05:00:00 11,0 6,5 7,9 19,3 19,6 10 6 15 8 ENE 1021,4 60 0 0,0
16.09.2018 04:00:00 10,9 6,0 7,6 19,5 19,7 6 4 13 7 ENE 1021,9 59 0 0,0
16.09.2018 03:00:00 11,0 6,1 8,0 19,6 19,7 10 6 14 8 E 1022,4 60 0 0,0
16.09.2018 02:00:00 12,7 6,5 10,4 19,7 19,7 12 6 18 10 E 1022,6 59 0 0,0
16.09.2018 01:00:00 13,2 6,5 10,0 19,8 19,7 14 7 19 10 ENE 1023,0 59 0 0,0
16.09.2018 00:00:00 13,2 6,5 9,8 19,8 19,7 10 6 14 8 ENE 1023,5 59 0 0,0
15.09.2018 23:00:00 14,7 7,0 11,8 19,9 19,7 11 6 16 8 ENE 1023,6 58 0 0,0
15.09.2018 22:00:00 17,1 6,9 13,2 19,9 19,7 6 4 12 7 NE 1023,8 54 0 0,0
15.09.2018 21:00:00 17,7 6,5 12,8 19,8 19,7 6 3 11 6 NE 1023,8 60 0 0,0
15.09.2018 20:00:00 20,0 6,7 18,0 19,7 19,7 9 5 23 12 ENE 1023,3 60 46 0,0
15.09.2018 19:00:00 22,3 6,9 24,3 19,6 19,7 14 7 23 12 E 1023,0 58 60 0,0
15.09.2018 18:00:00 22,8 6,1 26,9 19,5 19,7 13 7 25 13 ENE 1023,2 59 60 0,0
15.09.2018 17:00:00 22,7 6,9 28,5 19,2 19,7 9 5 27 15 ENE 1023,5 59 60 0,0
15.09.2018 16:00:00 22,3 7,3 29,0 19,1 19,7 12 7 24 13 NE 1024,0 59 60 0,0
15.09.2018 15:00:00 21,6 7,0 28,6 18,9 19,7 11 6 23 12 ENE 1024,6 60 60 0,0
15.09.2018 14:00:00 20,5 7,1 27,8 18,8 19,7 9 5 22 12 ENE 1025,3 60 60 0,0
15.09.2018 13:00:00 19,9 7,9 26,5 18,7 19,7 8 4 34 18 NNE 1026,0 60 60 0,0
15.09.2018 12:00:00 18,6 8,5 22,4 18,8 19,7 9 5 20 11 E 1026,7 59 60 0,0
15.09.2018 11:00:00 17,0 8,9 20,1 18,8 19,7 16 9 25 14 E 1026,8 60 60 0,0
15.09.2018 10:00:00 15,2 8,7 17,2 18,9 19,7 9 5 15 8 ENE 1026,8 60 60 0,0
15.09.2018 09:00:00 12,2 7,9 7,5 19,1 19,7 0 0 8 4 N 1026,5 58 60 0,0
15.09.2018 08:00:00 7,6 5,6 4,1 19,2 19,7 4 2 8 4 N 1026,5 53 4 0,0
15.09.2018 07:00:00 8,2 6,2 3,8 19,3 19,7 7 4 8 5 N 1026,0 58 0 0,0
15.09.2018 06:00:00 8,2 6,3 5,0 19,5 19,7 0 0 8 5 N 1025,8 57 0 0,0
15.09.2018 05:00:00 9,5 6,9 4,7 19,6 19,7 4 2 6 3 N 1025,6 57 0 0,0
15.09.2018 04:00:00 9,2 6,3 5,5 19,7 19,7 3 1 8 4 NW 1025,7 60 0 0,0
15.09.2018 03:00:00 10,9 7,0 6,7 19,9 19,7 3 2 8 5 NNW 1025,4 59 0 0,0
15.09.2018 02:00:00 12,3 7,0 6,9 20,0 19,7 4 2 8 4 N 1025,4 59 0 0,0
15.09.2018 01:00:00 12,2 7,3 7,4 20,1 19,7 3 1 10 5 N 1025,2 60 0 0,0
15.09.2018 00:00:00 13,6 7,4 10,6 20,2 19,7 6 4 12 6 N 1024,7 60 0 0,0
14.09.2018 23:00:00 14,3 7,1 11,3 20,2 19,7 7 4 13 7 NNW 1024,4 59 0 0,0
14.09.2018 22:00:00 15,1 6,9 11,3 20,2 19,7 10 5 16 8 NNW 1024,0 59 0 0,0
14.09.2018 21:00:00 16,3 6,7 11,3 20,2 19,7 5 3 9 5 WNW 1023,2 58 0 0,0
14.09.2018 20:00:00 19,7 6,8 18,1 20,2 19,8 6 3 17 9 NNW 1022,5 57 48 0,0
14.09.2018 19:00:00 20,9 7,8 24,0 20,1 19,7 13 7 31 17 NNW 1022,1 44 60 0,0
14.09.2018 18:00:00 21,5 8,0 26,1 20,0 19,7 8 4 21 12 W 1022,0 39 60 0,0
14.09.2018 17:00:00 21,6 8,5 24,0 19,9 19,7 12 6 23 13 WNW 1022,0 42 49 0,0
14.09.2018 16:00:00 20,2 8,8 22,7 19,8 19,7 9 5 19 11 NW 1022,3 48 22 0,0
14.09.2018 15:00:00 20,0 9,3 23,2 19,7 19,7 4 2 17 9 N 1022,4 57 7 0,0
14.09.2018 14:00:00 19,7 9,6 21,2 19,6 19,7 8 4 15 8 WNW 1022,8 60 27 0,0
14.09.2018 13:00:00 18,0 11,1 20,8 19,6 19,7 6 4 14 8 WSW 1023,1 54 44 0,0
14.09.2018 12:00:00 17,6 11,2 19,3 19,7 19,7 4 2 10 5 NNW 1023,5 57 21 0,0
14.09.2018 11:00:00 15,2 10,8 14,8 19,7 19,7 4 2 9 5 N 1023,5 40 0 0,0
14.09.2018 10:00:00 13,2 10,6 12,9 19,9 19,8 3 2 6 3 NNW 1023,4 33 0 0,0
14.09.2018 09:00:00 12,2 10,4 11,0 19,9 19,7 3 1 6 4 NNW 1023,2 19 5 0,0
14.09.2018 08:00:00 10,8 9,9 7,6 20,0 19,7 4 2 6 3 NW 1022,9 16 5 0,0
14.09.2018 07:00:00 10,6 9,2 7,6 20,1 19,7 4 2 7 4 W 1022,5 17 0 0,0
14.09.2018 06:00:00 12,6 10,3 9,6 20,2 19,7 4 2 10 5 NNW 1022,2 28 0 0,0
14.09.2018 05:00:00 13,6 10,6 11,8 20,3 19,7 7 4 19 10 N 1022,2 31 0 0,0
14.09.2018 04:00:00 14,3 10,9 13,6 20,3 19,7 13 7 18 10 NNE 1022,2 40 0 0,0
14.09.2018 03:00:00 15,1 11,5 14,7 20,4 19,7 9 5 18 10 NNW 1022,7 49 0 0,0
14.09.2018 02:00:00 16,0 12,2 15,5 20,4 19,7 11 6 17 9 NNW 1022,6 47 0 0,0
14.09.2018 01:00:00 16,6 12,3 16,1 20,5 19,7 9 5 16 9 N 1022,5 49 0 0,0
14.09.2018 00:00:00 17,0 12,7 16,4 20,6 19,7 8 5 17 9 NNW 1022,4 47 0 0,0
13.09.2018 23:00:00 17,3 12,8 16,9 20,6 19,7 10 5 18 10 N 1022,1 34 0 0,0
13.09.2018 22:00:00 17,7 12,8 17,2 20,6 19,7 8 5 14 8 N 1022,1 42 0 0,0
13.09.2018 21:00:00 18,0 12,4 17,4 20,6 19,7 6 3 17 9 N 1021,6 49 0 0,0
13.09.2018 20:00:00 18,6 12,6 18,4 20,6 19,7 11 6 20 11 N 1021,2 53 0 0,0
13.09.2018 19:00:00 18,8 13,2 19,4 20,6 19,7 11 6 19 11 N 1021,2 48 0 0,0
13.09.2018 18:00:00 18,4 13,5 18,9 20,6 19,7 10 5 22 12 N 1021,2 52 0 0,0
13.09.2018 17:00:00 18,5 14,0 19,7 20,6 19,7 15 8 24 13 N 1021,3 47 0 0,0
13.09.2018 16:00:00 18,9 14,4 20,4 20,5 19,7 10 6 23 13 N 1021,3 60 0 0,0
13.09.2018 15:00:00 18,3 14,8 20,4 20,5 19,7 16 9 26 14 NNW 1021,7 42 0 0,0
13.09.2018 14:00:00 18,6 15,1 20,8 20,5 19,7 13 7 22 12 NNW 1021,8 60 0 0,0
13.09.2018 13:00:00 19,3 15,4 21,4 20,5 19,7 15 8 24 13 NNW 1021,5 37 0 0,0
13.09.2018 12:00:00 19,4 15,1 21,1 20,5 19,7 13 7 23 12 N 1021,5 32 0 0,0
13.09.2018 11:00:00 18,2 15,3 19,4 20,6 19,7 13 7 19 11 N 1021,3 20 0 0,0
13.09.2018 10:00:00 17,7 15,3 17,7 20,6 19,7 8 4 16 9 N 1020,9 26 0 0,0
13.09.2018 09:00:00 17,2 15,0 16,6 20,7 19,6 8 5 15 8 N 1020,2 27 0 0,0
13.09.2018 08:00:00 17,0 14,8 16,3 20,8 19,7 8 4 15 8 N 1020,1 35 0 0,0
13.09.2018 07:00:00 17,0 14,8 16,0 20,8 19,6 7 4 14 7 N 1019,6 29 0 0,0
13.09.2018 06:00:00 16,8 14,6 16,0 20,9 19,7 10 6 14 8 NNW 1019,8 40 0 0,0
13.09.2018 05:00:00 17,1 14,4 15,8 21,0 19,7 8 4 14 8 N 1019,6 33 0 0,0
13.09.2018 04:00:00 17,3 14,0 16,0 21,0 19,6 9 5 15 8 NNW 1019,6 38 0 0,0
13.09.2018 03:00:00 18,2 13,9 16,8 21,1 19,7 5 3 18 10 N 1019,8 42 0 0,0
13.09.2018 02:00:00 18,9 13,3 17,3 21,2 19,6 9 5 16 9 NNW 1020,2 47 0 0,0
13.09.2018 01:00:00 20,0 13,5 18,8 21,2 19,6 8 4 18 10 N 1020,1 56 0 0,0
13.09.2018 00:00:00 20,9 13,3 19,3 21,3 19,6 9 5 22 12 NNE 1020,0 53 0 0,0
12.09.2018 23:00:00 21,0 12,7 19,4 21,3 19,6 10 5 16 9 NNW 1020,0 53 0 0,0
12.09.2018 22:00:00 22,6 13,1 20,6 21,3 19,7 9 5 16 9 NNW 1019,8 55 0 0,0
12.09.2018 21:00:00 24,4 14,2 22,2 21,3 19,7 8 5 13 7 NW 1019,3 49 0 0,0
12.09.2018 20:00:00 26,0 14,1 24,5 21,1 19,6 10 5 23 12 NNW 1018,9 56 38 0,0
12.09.2018 19:00:00 27,6 13,9 28,5 20,9 19,6 14 8 23 13 NW 1018,7 50 43 0,0
12.09.2018 18:00:00 29,0 14,4 32,4 20,7 19,6 10 5 22 12 WNW 1018,8 58 60 0,0
12.09.2018 17:00:00 29,4 14,4 32,9 20,5 19,6 12 6 25 13 NW 1019,2 20 58 0,0

tt = Température de l'air
td = dewpoint
tt 5cm = Température de l'air 5cm
tt -20cm = Température de l'air -20cm
tt -100cm = Température de l'air -100cm
ff = Vitesse du vent
fx = gusts
dd = Direction du vent
ppp = reduced air pressure
vv = visibility
sd = Ensoleillement
rr = Quantités de précipitations

stations d'obs. à proximité